Location: Chapleau
(47.8423°N, 83.4026°W)
Time: 06:11:35
(UTC-05:00)

ISS - Visible Passes

Search period start: 23 November 2017 00:00
Search period end: 03 December 2017 00:00
Orbit: 402 x 407 km, 51.6° (Epoch: 23 November)

Date Brightness Start Highest point End Pass type
(mag) Time Alt. Az. Time Alt. Az. Time Alt. Az.
26 Nov -1.2 18:35:43 10° SSE 18:35:51 10° SSE 18:35:51 10° SSE visible
27 Nov -1.3 19:17:40 10° SW 19:18:37 17° SSW 19:18:37 17° SSW visible
28 Nov -2.4 18:25:51 10° SSW 18:28:34 24° SE 18:28:36 24° SE visible
29 Nov -1.6 17:34:32 10° S 17:36:25 15° SE 17:38:19 10° E visible
29 Nov -2.3 19:09:10 10° WSW 19:11:10 34° SW 19:11:10 34° SW visible
30 Nov -3.3 18:16:58 10° SW 18:20:07 47° SSE 18:21:00 35° ESE visible
30 Nov -0.3 19:53:24 10° W 19:53:39 12° W 19:53:39 12° W visible
01 Dec -2.5 17:25:00 10° SSW 17:27:51 28° SE 17:30:44 10° E visible
01 Dec -2.9 19:00:53 10° WSW 19:03:25 47° W 19:03:25 47° W visible
02 Dec -3.9 18:08:27 10° WSW 18:11:44 87° SSE 18:13:09 32° ENE visible
02 Dec -0.6 19:45:17 10° WNW 19:45:47 13° WNW 19:45:47 13° WNW visible
